This demonstration page uses our WeatherBlox Daily Observations layout. Learn more.

Left ArrowRight Arrow

Hourly Observations for May 17, 2021

Temp ( °F °C ) Dew Point ( °F °C ) Humidity (%) Winds ( mph kmh ) Pressure ( in mb ) Visibility ( mi km ) Precip ( " mm )
12:27 am 00:27 Cloudy with Mist and Fog 59 15 57 13.9 93 93 ENE 5 7 29.98 1015 6 9.65604 N/A
12:54 am 00:54 Cloudy with Light Rain 59 15 57 13.9 93 93 ENE 6 9 29.98 1015 4 6.43736 0.001 0.001
1:09 am 01:09 Cloudy with Light Rain 59 15 57 13.9 93 93 ENE 6 9 29.97 1015 2.5 4.02335 0.001 0.001
1:28 am 01:28 Cloudy with Light Rain 59 15 57 13.9 93 93 NE 6 9 29.96 1015 4 6.43736 0.001 0.001
1:54 am 01:54 Cloudy with Mist and Fog 59 15 57 13.9 93 93 NNE 6 9 29.96 1015 5 8.0467 0.001 0.001
2:46 am 02:46 Cloudy with Mist and Fog 59 15 57 13.9 93 93 NNE 7 11 29.95 1014 2.5 4.02335 N/A
2:54 am 02:54 Cloudy with Mist and Fog 59 15 57 13.9 93 93 NE 7 11 29.94 1014 2.5 4.02335 N/A
3:29 am 03:29 Cloudy with Mist and Fog 59 15 57 13.9 93 93 NNE 7 11 29.97 1015 1.5 2.41401 N/A
3:54 am 03:54 Cloudy with Mist and Fog 59 15 57 13.9 93 93 N 6 9 29.97 1015 1.5 2.41401 N/A
4:31 am 04:31 Mostly Cloudy with Mist and Fog 59 15 57 13.9 93 93 NNE 10 17 29.95 1014 0.75 1.207005 0.01 0.254
4:54 am 04:54 Mostly Cloudy with Mist and Fog 59 15 57 13.9 93 93 NE 9 15 29.96 1014 0.75 1.207005 0.01 0.254
5:32 am 05:32 Cloudy with Mist and Fog 59 15 57 13.9 93 93 NE 7 11 29.97 1015 1 1.60934 N/A
5:54 am 05:54 Cloudy with Light Rain 59 15 57 13.9 93 93 NE 6 9 29.96 1015 1 1.60934 0.001 0.001
6:15 am 06:15 Mostly Cloudy with Light Rain 59 15 57 13.9 93 93 NE 7 11 29.97 1015 0.75 1.207005 0.001 0.001
6:54 am 06:54 Cloudy with Fog 59 15 57 13.9 93 93 NE 7 11 29.97 1015 0.5 0.80467 0.001 0.001
7:30 am 07:30 Cloudy with Mist and Fog 59 15 57 13.9 93 93 NE 7 11 29.97 1015 1 1.60934 N/A
7:54 am 07:54 Cloudy with Mist and Fog 59 15 57 13.9 93 93 NNE 8 13 29.96 1015 1.5 2.41401 N/A
8:54 am 08:54 Cloudy with Mist and Fog 59 15 58 14.4 96 96 ENE 8 13 29.98 1015 2 3.21868 N/A
9:39 am 09:39 Cloudy with Mist and Fog 61 16.1 59 15 93 93 ENE 7 11 29.98 1015 1.75 2.816345 N/A
9:54 am 09:54 Cloudy with Light Rain 61 16.1 58 14.4 90 90 NE 8 13 29.99 1016 2 3.21868 0.001 0.001
10:02 am 10:02 Cloudy with Mist and Fog 61 16.1 59 15 93 93 NE 8 13 29.98 1015 3 4.82802 0.001 0.001
10:24 am 10:24 Cloudy with Mist and Fog 62 16.7 59 15 90 90 NE 10 17 29.98 1015 4 6.43736 0.001 0.001
10:54 am 10:54 Cloudy with Mist and Fog 62 16.7 59 15 90 90 NE 8 13 29.99 1016 2.5 4.02335 0.001 0.001
11:03 am 11:03 Cloudy with Mist and Fog 61 16.1 59 15 93 93 NE 7 11 29.99 1016 1.5 2.41401 N/A
11:15 am 11:15 Cloudy with Mist and Fog 61 16.1 59 15 93 93 ENE 6 9 29.99 1016 2 3.21868 N/A
11:43 am 11:43 Cloudy with Mist and Fog 62 16.7 59 15 90 90 NE 6 9 29.98 1015 1.25 2.011675 N/A
11:54 am 11:54 Cloudy with Mist and Fog 62 16.7 59 15 90 90 NE 8 13 29.98 1015 1.25 2.011675 N/A
12:36 pm 12:36 Cloudy with Mist and Fog 63 17.2 60 15.6 90 90 NNE 8 13 29.98 1015 2.5 4.02335 N/A
12:52 pm 12:52 Cloudy with Mist and Fog 63 17 61 16 94 94 NE 7 11 29.97 1015 4 6.43736 N/A
12:54 pm 12:54 Cloudy with Mist and Fog 63 17.2 60 15.6 90 90 NE 7 11 29.98 1015 4 6.43736 N/A
1:32 pm 13:32 Cloudy with Light Rain 65 18.3 61 16.1 87 87 NNE 6 9 29.96 1015 5 8.0467 0.001 0.001
1:54 pm 13:54 Cloudy 65 18.3 61 16.1 87 87 ENE 6 9 29.98 1015 9 14.48406 0.001 0.001
2:18 pm 14:18 Cloudy 67 19.4 61 16.1 81 81 NE 6 9 29.96 1015 10 16.0934 N/A
2:27 pm 14:27 Cloudy 68 20 62 16.7 81 81 E 7 11 29.95 1014 10 16.0934 N/A
2:51 pm 14:51 Cloudy 68 20 61 16 78 78 NE 6 9 29.95 1014 10 16.0934 N/A
2:54 pm 14:54 Cloudy 68 20 60 15.6 76 76 NE 7 11 29.96 1015 10 16.0934 N/A
3:06 pm 15:06 Cloudy 68 20 60 15.6 76 76 ENE 7 11 29.95 1014 10 16.0934 N/A
3:25 pm 15:25 Cloudy 70 21.1 60 15.6 71 71 E 8 13 29.94 1014 10 16.0934 N/A
3:54 pm 15:54 Cloudy 71 21.7 59 15 66 66 E 9 15 29.95 1014 10 16.0934 N/A
4:54 pm 16:54 Cloudy 70 21.1 58 14.4 66 66 E 12 19 29.95 1014 10 16.0934 N/A
5:54 pm 17:54 Cloudy 69 20.6 60 15.6 73 73 ENE 10 17 29.96 1014 10 16.0934 N/A
6:54 pm 18:54 Cloudy 66 18.9 60 15.6 81 81 ENE 12 19 29.96 1015 10 16.0934 N/A
7:54 pm 19:54 Cloudy 65 18.3 60 15.6 84 84 ENE 9 15 29.97 1015 10 16.0934 N/A
8:54 pm 20:54 Cloudy 65 18.3 60 15.6 84 84 ENE 10 17 29.96 1015 10 16.0934 0.001 0.001
9:30 pm 21:30 Cloudy with Light Rain 65 18.3 60 15.6 84 84 E 10 17 29.95 1014 10 16.0934 0.001 0.001
9:40 pm 21:40 Cloudy with Light Rain 65 18.3 60 15.6 84 84 E 7 11 29.96 1015 10 16.0934 0.001 0.001
9:54 pm 21:54 Cloudy 65 18.3 60 15.6 84 84 E 9 15 29.97 1015 10 16.0934 0.001 0.001
10:04 pm 22:04 Cloudy with Light Rain 65 18.3 59 15 81 81 E 10 17 29.96 1015 10 16.0934 0.001 0.001
10:54 pm 22:54 Cloudy 64 17.8 57 13.9 78 78 E 10 17 29.97 1015 10 16.0934 0.001 0.001
11:13 pm 23:13 Cloudy 63 17.2 57 13.9 81 81 ENE 9 15 29.96 1015 10 16.0934 N/A
11:28 pm 23:28 Cloudy 63 17.2 58 14.4 84 84 ENE 9 15 29.97 1015 10 16.0934 N/A
11:54 pm 23:54 Cloudy 62 16.7 58 14.4 86 86 ENE 8 13 29.97 1015 10 16.0934 N/A

Powered by AerisWeather